IAW611 ORMM-OEMA

Flight info

Callsign IAW611
Flight time 1h 44m
Altitude 36000
Route ALPET DCT RUKAM B411 ASH/N0483F410 B544 HLF V174 LABKO
Aircraft B772/H-SDE2E3FGHIJ5LORVWXY/LB1D1

Departure

Time 2026-05-08 08:18
Airport Basra International Airport (ORMM)

Arrival

Time 2026-05-08 10:03
Airport Prince Mohammad Bin Abdulaziz Airport (OEMA)
Time Latitude Longitude Altitude Speed Heading
2026-05-08 08:02 30.55054 47.66916 50 ft 0 kts 47°
2026-05-08 08:05 30.55053 47.66915 50 ft 1 kts 47°
2026-05-08 08:05 30.55037 47.66895 49 ft 4 kts 47°
2026-05-08 08:05 30.55021 47.66875 46 ft 4 kts 55°
2026-05-08 08:05 30.55014 47.66849 43 ft 4 kts 104°
2026-05-08 08:06 30.55025 47.66821 44 ft 4 kts 127°
2026-05-08 08:06 30.55042 47.66798 47 ft 4 kts 136°
2026-05-08 08:06 30.55050 47.66789 45 ft 0 kts 138°
2026-05-08 08:10 30.55045 47.66795 50 ft 2 kts 138°
2026-05-08 08:10 30.55029 47.66811 48 ft 4 kts 138°
2026-05-08 08:11 30.55006 47.66835 50 ft 4 kts 138°
2026-05-08 08:11 30.54980 47.66862 50 ft 5 kts 138°
2026-05-08 08:11 30.54949 47.66884 50 ft 5 kts 166°
2026-05-08 08:11 30.54913 47.66868 50 ft 7 kts 217°
2026-05-08 08:12 30.54877 47.66826 48 ft 7 kts 227°
2026-05-08 08:12 30.54874 47.66824 48 ft 7 kts 227°
2026-05-08 08:12 30.54868 47.66815 49 ft 7 kts 227°
2026-05-08 08:12 30.54829 47.66766 50 ft 9 kts 228°
2026-05-08 08:13 30.54781 47.66716 50 ft 9 kts 202°
2026-05-08 08:13 30.54722 47.66739 49 ft 10 kts 140°
2026-05-08 08:13 30.54659 47.66806 51 ft 16 kts 137°
2026-05-08 08:13 30.54574 47.66894 51 ft 16 kts 138°
2026-05-08 08:14 30.54489 47.66984 51 ft 17 kts 137°
2026-05-08 08:14 30.54395 47.67083 48 ft 19 kts 137°
2026-05-08 08:14 30.54292 47.67191 51 ft 20 kts 138°
2026-05-08 08:14 30.54187 47.67301 51 ft 20 kts 138°
2026-05-08 08:15 30.54082 47.67412 51 ft 20 kts 137°
2026-05-08 08:15 30.53977 47.67522 51 ft 20 kts 137°
2026-05-08 08:15 30.53872 47.67632 50 ft 20 kts 137°
2026-05-08 08:15 30.53778 47.67731 51 ft 13 kts 138°
2026-05-08 08:16 30.53726 47.67786 51 ft 9 kts 139°
2026-05-08 08:16 30.53670 47.67788 51 ft 9 kts 211°
2026-05-08 08:16 30.53628 47.67739 48 ft 9 kts 228°
2026-05-08 08:16 30.53588 47.67688 49 ft 9 kts 228°
2026-05-08 08:17 30.53562 47.67644 50 ft 5 kts 261°
2026-05-08 08:17 30.53579 47.67611 47 ft 2 kts 318°
2026-05-08 08:17 30.53580 47.67609 47 ft 1 kts 319°
2026-05-08 08:17 30.53677 47.67509 47 ft 47 kts 318°
2026-05-08 08:18 30.54117 47.67047 47 ft 122 kts 318°
2026-05-08 08:18 30.54872 47.66257 400 ft 153 kts 318°
2026-05-08 08:18 30.55656 47.65476 1333 ft 148 kts 322°
2026-05-08 08:18 30.56452 47.64715 2111 ft 146 kts 317°
2026-05-08 08:19 30.57024 47.63674 2394 ft 163 kts 298°
2026-05-08 08:19 30.57547 47.62456 2728 ft 176 kts 301°
2026-05-08 08:19 30.58172 47.61148 2998 ft 196 kts 302°
2026-05-08 08:19 30.58873 47.59713 3255 ft 215 kts 301°
2026-05-08 08:20 30.59650 47.58133 3531 ft 235 kts 301°
2026-05-08 08:20 30.60479 47.56428 3931 ft 250 kts 301°
2026-05-08 08:20 30.61339 47.54632 4516 ft 259 kts 300°
2026-05-08 08:20 30.62224 47.52772 5101 ft 266 kts 300°
2026-05-08 08:21 30.63125 47.50884 5845 ft 267 kts 299°
2026-05-08 08:21 30.64020 47.49018 6684 ft 266 kts 299°
2026-05-08 08:21 30.64936 47.47116 7279 ft 272 kts 298°
2026-05-08 08:21 30.65866 47.45201 8069 ft 272 kts 296°
2026-05-08 08:22 30.66792 47.43282 8801 ft 274 kts 296°
2026-05-08 08:22 30.67734 47.41329 9440 ft 280 kts 296°
2026-05-08 08:22 30.68677 47.39378 9709 ft 282 kts 296°
2026-05-08 08:22 30.69644 47.37383 10100 ft 285 kts 295°
2026-05-08 08:23 30.70647 47.35308 10410 ft 307 kts 296°
2026-05-08 08:23 30.71733 47.33054 10594 ft 333 kts 296°
2026-05-08 08:23 30.72900 47.30637 11035 ft 350 kts 296°
2026-05-08 08:23 30.74114 47.28133 11765 ft 360 kts 296°
2026-05-08 08:24 30.75355 47.25576 12665 ft 366 kts 296°
2026-05-08 08:24 30.76614 47.22979 13636 ft 371 kts 295°
2026-05-08 08:24 30.77890 47.20346 14529 ft 376 kts 295°
2026-05-08 08:24 30.79177 47.17687 15457 ft 378 kts 295°
2026-05-08 08:25 30.80472 47.15011 16372 ft 381 kts 295°
2026-05-08 08:25 30.81779 47.12304 17219 ft 386 kts 295°
2026-05-08 08:25 30.82986 47.09520 18089 ft 385 kts 288°
2026-05-08 08:25 30.83784 47.06558 18913 ft 382 kts 279°
2026-05-08 08:26 30.84236 47.03519 19698 ft 381 kts 273°
2026-05-08 08:26 30.84501 47.00436 20419 ft 384 kts 272°
2026-05-08 08:26 30.84769 46.97330 21148 ft 387 kts 272°
2026-05-08 08:26 30.85042 46.94196 21862 ft 391 kts 272°
2026-05-08 08:27 30.85315 46.91075 22579 ft 395 kts 272°
2026-05-08 08:27 30.85596 46.87889 23315 ft 398 kts 272°
2026-05-08 08:27 30.85881 46.84678 23968 ft 401 kts 272°
2026-05-08 08:27 30.86169 46.81437 24586 ft 403 kts 271°
2026-05-08 08:28 30.86459 46.78186 25230 ft 406 kts 271°
2026-05-08 08:28 30.86750 46.74906 25817 ft 408 kts 270°
2026-05-08 08:28 30.87043 46.71608 26364 ft 412 kts 270°
2026-05-08 08:28 30.87337 46.68280 26901 ft 415 kts 270°
2026-05-08 08:29 30.87632 46.64932 27412 ft 418 kts 269°
2026-05-08 08:29 30.87929 46.61561 27937 ft 420 kts 269°
2026-05-08 08:29 30.88227 46.58167 28447 ft 422 kts 269°
2026-05-08 08:29 30.88526 46.54755 28881 ft 426 kts 269°
2026-05-08 08:30 30.88825 46.51313 29280 ft 430 kts 268°
2026-05-08 08:30 30.89127 46.47839 29713 ft 432 kts 268°
2026-05-08 08:30 30.89733 46.40841 30458 ft 437 kts 268°
2026-05-08 08:31 30.90038 46.37318 30823 ft 438 kts 268°
2026-05-08 08:31 30.90342 46.33792 31190 ft 438 kts 268°
2026-05-08 08:31 30.90646 46.30261 31536 ft 438 kts 268°
2026-05-08 08:31 30.90948 46.26736 31888 ft 438 kts 268°
2026-05-08 08:32 30.91250 46.23214 32279 ft 436 kts 267°
2026-05-08 08:32 30.91549 46.19710 32714 ft 434 kts 267°
2026-05-08 08:32 30.91845 46.16223 33138 ft 432 kts 267°
2026-05-08 08:32 30.92138 46.12750 33524 ft 431 kts 267°
2026-05-08 08:33 30.92430 46.09281 33924 ft 429 kts 267°
2026-05-08 08:33 30.92718 46.05833 34306 ft 427 kts 266°
2026-05-08 08:33 30.93006 46.02397 34695 ft 425 kts 266°
2026-05-08 08:33 30.93291 45.98982 35075 ft 422 kts 266°
2026-05-08 08:34 30.93568 45.95626 35383 ft 423 kts 267°
2026-05-08 08:34 30.93848 45.92208 35574 ft 425 kts 266°
2026-05-08 08:34 30.94128 45.88792 35916 ft 422 kts 266°
2026-05-08 08:34 30.94408 45.85383 36017 ft 423 kts 266°
2026-05-08 08:35 30.94965 45.78580 36026 ft 419 kts 266°
2026-05-08 08:35 30.95514 45.71803 36037 ft 421 kts 266°
2026-05-08 08:36 30.96061 45.64985 36037 ft 424 kts 266°
2026-05-08 08:36 30.96605 45.58179 36064 ft 425 kts 266°
2026-05-08 08:37 30.97154 45.51295 36042 ft 427 kts 266°
2026-05-08 08:37 30.97701 45.44390 36038 ft 428 kts 266°
2026-05-08 08:38 30.98239 45.37494 36040 ft 423 kts 265°
2026-05-08 08:38 30.98050 45.34165 36034 ft 404 kts 249°
2026-05-08 08:38 30.97447 45.32132 36042 ft 398 kts 241°
2026-05-08 08:39 30.94555 45.26719 36036 ft 393 kts 225°
2026-05-08 08:39 30.90529 45.22415 36046 ft 394 kts 221°
2026-05-08 08:40 30.86400 45.18219 36055 ft 397 kts 221°
2026-05-08 08:40 30.82242 45.13960 36046 ft 399 kts 221°
2026-05-08 08:41 30.78082 45.09663 36042 ft 400 kts 221°
2026-05-08 08:41 30.73934 45.05363 36050 ft 400 kts 221°
2026-05-08 08:42 30.69816 45.01094 36043 ft 398 kts 221°
2026-05-08 08:42 30.65685 44.96816 36060 ft 398 kts 221°
2026-05-08 08:43 30.61557 44.92547 36052 ft 397 kts 221°
2026-05-08 08:43 30.57430 44.88283 36056 ft 397 kts 221°
2026-05-08 08:44 30.53306 44.84028 36055 ft 396 kts 221°
2026-05-08 08:44 30.49185 44.79781 36067 ft 396 kts 221°
2026-05-08 08:45 30.45064 44.75539 36052 ft 396 kts 221°
2026-05-08 08:45 30.40946 44.71305 36046 ft 394 kts 221°
2026-05-08 08:46 30.36847 44.67096 36057 ft 393 kts 221°
2026-05-08 08:46 30.32762 44.62907 36059 ft 392 kts 221°
2026-05-08 08:47 30.28706 44.58752 36071 ft 392 kts 221°
2026-05-08 08:47 30.24618 44.54568 36062 ft 392 kts 221°
2026-05-08 08:48 30.20532 44.50391 36063 ft 392 kts 221°
2026-05-08 08:48 30.16444 44.46217 36063 ft 392 kts 221°
2026-05-08 08:49 30.12353 44.42046 36081 ft 392 kts 221°
2026-05-08 08:49 30.08255 44.37869 36068 ft 393 kts 221°
2026-05-08 08:50 30.04146 44.33689 36064 ft 394 kts 221°
2026-05-08 08:50 30.00023 44.29500 36046 ft 395 kts 221°
2026-05-08 08:51 29.95934 44.25349 36057 ft 394 kts 220°
2026-05-08 08:51 29.91823 44.21178 36073 ft 394 kts 221°
2026-05-08 08:52 29.87699 44.17001 36065 ft 395 kts 221°
2026-05-08 08:52 29.83565 44.12820 36050 ft 395 kts 220°
2026-05-08 08:53 29.79432 44.08644 36063 ft 395 kts 220°
2026-05-08 08:53 29.75316 44.04490 36062 ft 395 kts 220°
2026-05-08 08:54 29.71181 44.00322 36071 ft 396 kts 221°
2026-05-08 08:54 29.67026 43.96137 36065 ft 398 kts 221°
2026-05-08 08:55 29.62859 43.91945 36062 ft 398 kts 221°
2026-05-08 08:55 29.58712 43.87779 36065 ft 399 kts 221°
2026-05-08 08:56 29.54537 43.83589 36057 ft 398 kts 220°
2026-05-08 08:56 29.50358 43.79399 36060 ft 399 kts 221°
2026-05-08 08:57 29.46172 43.75208 36063 ft 399 kts 221°
2026-05-08 08:57 29.41985 43.71020 36062 ft 399 kts 221°
2026-05-08 08:58 29.37796 43.66835 36060 ft 399 kts 220°
2026-05-08 08:58 29.33615 43.62663 36087 ft 399 kts 221°
2026-05-08 08:59 29.29422 43.58484 36069 ft 400 kts 221°
2026-05-08 08:59 29.25243 43.54324 36046 ft 401 kts 220°
2026-05-08 09:00 29.21037 43.50140 36068 ft 400 kts 220°
2026-05-08 09:00 29.16827 43.45957 36065 ft 400 kts 220°
2026-05-08 09:01 29.12619 43.41782 36079 ft 401 kts 221°
2026-05-08 09:01 29.08401 43.37600 36065 ft 401 kts 221°
2026-05-08 09:02 29.04175 43.33417 36067 ft 402 kts 221°
2026-05-08 09:02 28.99945 43.29234 36065 ft 402 kts 220°
2026-05-08 09:03 28.95713 43.25053 36033 ft 402 kts 220°
2026-05-08 09:03 28.91519 43.20914 36079 ft 401 kts 220°
2026-05-08 09:04 28.87290 43.16746 36073 ft 402 kts 220°
2026-05-08 09:04 28.83055 43.12578 36065 ft 402 kts 220°
2026-05-08 09:05 28.78816 43.08408 36057 ft 402 kts 220°
2026-05-08 09:05 28.74580 43.04248 36065 ft 402 kts 220°
2026-05-08 09:06 28.70342 43.00089 36074 ft 403 kts 221°
2026-05-08 09:06 28.66091 42.95923 36073 ft 403 kts 221°
2026-05-08 09:07 28.61871 42.91790 36055 ft 403 kts 220°
2026-05-08 09:07 28.57623 42.87636 36062 ft 403 kts 220°
2026-05-08 09:08 28.53372 42.83483 36066 ft 402 kts 220°
2026-05-08 09:08 28.49122 42.79336 36045 ft 402 kts 220°
2026-05-08 09:09 28.44878 42.75199 36060 ft 401 kts 220°
2026-05-08 09:09 28.40637 42.71070 36063 ft 401 kts 220°
2026-05-08 09:10 28.36397 42.66946 36063 ft 401 kts 220°
2026-05-08 09:10 28.32186 42.62853 36044 ft 400 kts 220°
2026-05-08 09:11 28.27957 42.58749 36071 ft 401 kts 220°
2026-05-08 09:11 28.23713 42.54635 36065 ft 401 kts 220°
2026-05-08 09:12 28.19463 42.50520 36059 ft 402 kts 220°
2026-05-08 09:12 28.15206 42.46402 36057 ft 402 kts 220°
2026-05-08 09:13 28.10945 42.42284 36054 ft 403 kts 220°
2026-05-08 09:13 28.06676 42.38163 36064 ft 404 kts 221°
2026-05-08 09:14 28.02385 42.34027 36055 ft 406 kts 220°
2026-05-08 09:14 27.98085 42.29885 36045 ft 405 kts 220°
2026-05-08 09:15 27.93816 42.25778 36056 ft 405 kts 220°
2026-05-08 09:15 27.89520 42.21649 36054 ft 405 kts 220°
2026-05-08 09:16 27.85227 42.17526 36042 ft 406 kts 220°
2026-05-08 09:16 27.80919 42.13395 36051 ft 407 kts 220°
2026-05-08 09:17 27.76602 42.09260 36054 ft 407 kts 220°
2026-05-08 09:17 27.72276 42.05120 36052 ft 408 kts 220°
2026-05-08 09:18 27.67944 42.00980 36041 ft 407 kts 220°
2026-05-08 09:18 27.63630 41.96859 36068 ft 406 kts 220°
2026-05-08 09:19 27.59336 41.92762 36063 ft 407 kts 220°
2026-05-08 09:19 27.55010 41.88642 36069 ft 407 kts 220°
2026-05-08 09:20 27.50680 41.84520 36062 ft 407 kts 220°
2026-05-08 09:20 27.46350 41.80403 36075 ft 407 kts 220°
2026-05-08 09:21 27.42014 41.76284 36067 ft 408 kts 220°
2026-05-08 09:23 27.26798 41.61867 36044 ft 410 kts 220°
2026-05-08 09:23 27.22435 41.57743 36036 ft 410 kts 220°
2026-05-08 09:24 27.18065 41.53616 36035 ft 410 kts 220°
2026-05-08 09:24 27.13696 41.49495 36047 ft 410 kts 220°
2026-05-08 09:25 27.09325 41.45376 36019 ft 410 kts 220°
2026-05-08 09:25 27.04984 41.41290 36023 ft 410 kts 220°
2026-05-08 09:26 27.00590 41.37158 36009 ft 409 kts 220°
2026-05-08 09:26 26.96260 41.33089 36034 ft 409 kts 220°
2026-05-08 09:27 26.91888 41.28988 36003 ft 411 kts 220°
2026-05-08 09:27 26.87500 41.24876 36009 ft 411 kts 220°
2026-05-08 09:28 26.83109 41.20764 36001 ft 411 kts 220°
2026-05-08 09:28 26.78719 41.16658 36004 ft 411 kts 220°
2026-05-08 09:29 26.74334 41.12561 36043 ft 411 kts 221°
2026-05-08 09:29 26.69930 41.08448 36023 ft 413 kts 221°
2026-05-08 09:30 26.65519 41.04335 35991 ft 413 kts 221°
2026-05-08 09:30 26.61113 41.00232 36002 ft 412 kts 221°
2026-05-08 09:31 26.56752 40.96174 36009 ft 412 kts 221°
2026-05-08 09:31 26.52344 40.92076 35998 ft 413 kts 221°
2026-05-08 09:32 26.47922 40.87970 36010 ft 414 kts 221°
2026-05-08 09:32 26.43482 40.83851 35988 ft 415 kts 221°
2026-05-08 09:33 26.39032 40.79727 35985 ft 416 kts 221°
2026-05-08 09:33 26.34575 40.75602 35986 ft 417 kts 221°
2026-05-08 09:34 26.30873 40.72177 35985 ft 415 kts 221°
2026-05-08 09:34 26.26439 40.68081 35985 ft 413 kts 221°
2026-05-08 09:35 26.22016 40.63998 35984 ft 412 kts 221°
2026-05-08 09:35 26.17603 40.59928 35985 ft 412 kts 221°
2026-05-08 09:36 26.13195 40.55868 35970 ft 411 kts 221°
2026-05-08 09:36 26.08793 40.51817 35986 ft 411 kts 221°
2026-05-08 09:37 26.04383 40.47762 35991 ft 411 kts 221°
2026-05-08 09:37 25.99989 40.43726 35995 ft 413 kts 221°
2026-05-08 09:38 25.95549 40.39654 35981 ft 413 kts 221°
2026-05-08 09:38 25.91111 40.35586 35990 ft 413 kts 221°
2026-05-08 09:39 25.86674 40.31524 35991 ft 413 kts 221°
2026-05-08 09:39 25.82241 40.27469 36000 ft 413 kts 221°
2026-05-08 09:40 25.77807 40.23416 35990 ft 413 kts 221°
2026-05-08 09:40 25.73365 40.19360 36013 ft 414 kts 221°
2026-05-08 09:41 25.68912 40.15300 36009 ft 415 kts 221°
2026-05-08 09:41 25.64509 40.11288 35739 ft 411 kts 221°
2026-05-08 09:41 25.62287 40.09266 35288 ft 415 kts 221°
2026-05-08 09:42 25.60048 40.07228 34879 ft 417 kts 221°
2026-05-08 09:42 25.57809 40.05192 34654 ft 415 kts 221°
2026-05-08 09:42 25.55583 40.03168 34173 ft 413 kts 221°
2026-05-08 09:42 25.53374 40.01161 33626 ft 409 kts 221°
2026-05-08 09:43 25.51179 39.99168 33041 ft 406 kts 221°
2026-05-08 09:43 25.49002 39.97193 32509 ft 403 kts 221°
2026-05-08 09:43 25.46846 39.95237 31955 ft 400 kts 221°
2026-05-08 09:43 25.44704 39.93292 31459 ft 397 kts 221°
2026-05-08 09:44 25.42574 39.91360 30919 ft 395 kts 221°
2026-05-08 09:44 25.40453 39.89440 30437 ft 393 kts 221°
2026-05-08 09:44 25.38341 39.87534 29896 ft 390 kts 220°
2026-05-08 09:44 25.36036 39.85951 29275 ft 392 kts 206°
2026-05-08 09:45 25.33450 39.85047 28722 ft 388 kts 200°
2026-05-08 09:45 25.30848 39.84265 28127 ft 389 kts 197°
2026-05-08 09:45 25.28153 39.83804 27568 ft 396 kts 190°
2026-05-08 09:45 25.25382 39.83687 26911 ft 401 kts 183°
2026-05-08 09:46 25.22586 39.83798 26230 ft 403 kts 182°
2026-05-08 09:46 25.19787 39.83918 25610 ft 402 kts 183°
2026-05-08 09:46 25.16997 39.84038 25128 ft 399 kts 183°
2026-05-08 09:46 25.14235 39.84154 24658 ft 396 kts 183°
2026-05-08 09:47 25.11496 39.84264 24186 ft 393 kts 183°
2026-05-08 09:47 25.08768 39.84369 23689 ft 391 kts 183°
2026-05-08 09:47 25.06052 39.84472 23157 ft 389 kts 183°
2026-05-08 09:47 25.03398 39.84574 22452 ft 376 kts 182°
2026-05-08 09:48 25.00798 39.84671 21471 ft 372 kts 182°
2026-05-08 09:48 24.98249 39.84764 20545 ft 370 kts 182°
2026-05-08 09:48 24.95657 39.84859 19655 ft 366 kts 182°
2026-05-08 09:48 24.93161 39.84950 18859 ft 362 kts 182°
2026-05-08 09:49 24.90659 39.85042 18076 ft 357 kts 182°
2026-05-08 09:49 24.88188 39.85132 17504 ft 355 kts 182°
2026-05-08 09:49 24.85728 39.85221 17018 ft 353 kts 182°
2026-05-08 09:49 24.83276 39.85310 16540 ft 352 kts 182°
2026-05-08 09:50 24.80831 39.85399 16059 ft 351 kts 182°
2026-05-08 09:50 24.78394 39.85488 15580 ft 349 kts 182°
2026-05-08 09:50 24.75970 39.85578 15117 ft 348 kts 181°
2026-05-08 09:50 24.73542 39.85666 14622 ft 348 kts 181°
2026-05-08 09:51 24.71122 39.85754 14124 ft 348 kts 181°
2026-05-08 09:51 24.68705 39.85842 13594 ft 348 kts 181°
2026-05-08 09:51 24.66288 39.85931 13064 ft 347 kts 181°
2026-05-08 09:51 24.63884 39.86020 12549 ft 345 kts 181°
2026-05-08 09:52 24.61490 39.86108 12053 ft 344 kts 180°
2026-05-08 09:52 24.59103 39.86197 11558 ft 342 kts 180°
2026-05-08 09:52 24.56730 39.86283 11062 ft 341 kts 180°
2026-05-08 09:52 24.54396 39.86368 10620 ft 339 kts 180°
2026-05-08 09:53 24.52091 39.86453 10521 ft 325 kts 180°
2026-05-08 09:53 24.49881 39.86536 10440 ft 311 kts 180°
2026-05-08 09:53 24.47762 39.86614 10358 ft 298 kts 180°
2026-05-08 09:53 24.45724 39.86689 10205 ft 289 kts 180°
2026-05-08 09:54 24.43735 39.86761 9977 ft 284 kts 180°
2026-05-08 09:54 24.41770 39.86831 9613 ft 279 kts 180°
2026-05-08 09:54 24.39833 39.86901 8932 ft 279 kts 180°
2026-05-08 09:54 24.37874 39.86971 8252 ft 286 kts 180°
2026-05-08 09:55 24.35910 39.87043 8032 ft 274 kts 180°
2026-05-08 09:55 24.34044 39.87112 7886 ft 263 kts 179°
2026-05-08 09:55 24.32302 39.86888 7738 ft 248 kts 203°
2026-05-08 09:55 24.30935 39.85830 7581 ft 239 kts 229°
2026-05-08 09:56 24.30030 39.84345 7406 ft 231 kts 246°
2026-05-08 09:56 24.29587 39.82669 7142 ft 228 kts 257°
2026-05-08 09:56 24.29296 39.80988 6985 ft 220 kts 258°
2026-05-08 09:56 24.29059 39.79352 6721 ft 215 kts 267°
2026-05-08 09:57 24.30617 39.76799 6208 ft 216 kts 333°
2026-05-08 09:57 24.32001 39.76199 6084 ft 210 kts 339°
2026-05-08 09:57 24.33378 39.75684 5914 ft 211 kts 340°
2026-05-08 09:58 24.34782 39.75241 5678 ft 208 kts 344°
2026-05-08 09:58 24.36189 39.74897 5426 ft 207 kts 347°
2026-05-08 09:58 24.37598 39.74592 5159 ft 204 kts 347°
2026-05-08 09:58 24.38943 39.74306 4946 ft 189 kts 346°
2026-05-08 09:59 24.40198 39.74040 4699 ft 178 kts 347°
2026-05-08 09:59 24.41382 39.73790 4454 ft 171 kts 347°
2026-05-08 09:59 24.42505 39.73551 4270 ft 159 kts 346°
2026-05-08 09:59 24.43540 39.73330 4095 ft 145 kts 345°
2026-05-08 10:00 24.44538 39.73117 3889 ft 148 kts 346°
2026-05-08 10:00 24.45536 39.72904 3740 ft 151 kts 346°
2026-05-08 10:00 24.46561 39.72695 3517 ft 145 kts 347°
2026-05-08 10:00 24.47560 39.72483 3383 ft 150 kts 346°
2026-05-08 10:01 24.48583 39.72244 3178 ft 150 kts 348°
2026-05-08 10:01 24.49599 39.72044 2960 ft 147 kts 348°
2026-05-08 10:01 24.50590 39.71826 2780 ft 146 kts 346°
2026-05-08 10:01 24.51580 39.71624 2581 ft 144 kts 349°
2026-05-08 10:02 24.52555 39.71409 2393 ft 147 kts 346°
2026-05-08 10:02 24.53587 39.71198 2198 ft 154 kts 348°
2026-05-08 10:02 24.54630 39.70977 2082 ft 146 kts 347°
2026-05-08 10:02 24.55518 39.70785 2073 ft 110 kts 349°
2026-05-08 10:03 24.56116 39.70657 2074 ft 65 kts 349°
2026-05-08 10:03 24.56417 39.70604 2073 ft 31 kts 357°
2026-05-08 10:03 24.56564 39.70629 2074 ft 11 kts 17°
2026-05-08 10:03 24.56632 39.70653 2072 ft 9 kts 20°
2026-05-08 10:04 24.56659 39.70708 2071 ft 9 kts 100°
2026-05-08 10:04 24.56617 39.70742 2070 ft 8 kts 166°
2026-05-08 10:04 24.56563 39.70754 2074 ft 8 kts 168°
2026-05-08 10:04 24.56509 39.70766 2072 ft 8 kts 169°
2026-05-08 10:05 24.56455 39.70777 2073 ft 8 kts 169°
2026-05-08 10:05 24.56383 39.70793 2073 ft 12 kts 169°
2026-05-08 10:05 24.56297 39.70811 2074 ft 12 kts 169°
2026-05-08 10:05 24.56212 39.70828 2073 ft 12 kts 168°
2026-05-08 10:06 24.56127 39.70847 2071 ft 12 kts 168°
2026-05-08 10:06 24.56051 39.70864 2074 ft 9 kts 169°
2026-05-08 10:06 24.56004 39.70885 2073 ft 7 kts 134°
2026-05-08 10:06 24.55997 39.70937 2074 ft 7 kts 80°
2026-05-08 10:07 24.56009 39.71001 2074 ft 12 kts 79°
2026-05-08 10:07 24.56024 39.71089 2072 ft 12 kts 79°
2026-05-08 10:07 24.56042 39.71192 2072 ft 14 kts 79°
2026-05-08 10:07 24.56060 39.71295 2070 ft 12 kts 79°
2026-05-08 10:08 24.56072 39.71361 2072 ft 7 kts 80°
2026-05-08 10:08 24.56051 39.71404 2070 ft 7 kts 154°
2026-05-08 10:08 24.56004 39.71418 2074 ft 7 kts 167°
2026-05-08 10:08 24.55957 39.71429 2070 ft 7 kts 169°
2026-05-08 10:09 24.55921 39.71432 2071 ft 5 kts 191°
2026-05-08 10:09 24.55901 39.71404 2069 ft 5 kts 256°
2026-05-08 10:09 24.55898 39.71381 2071 ft 2 kts 259°
2026-05-08 10:09 24.55898 39.71380 2071 ft 0 kts 259°
2026-05-08 10:10 24.55896 39.71366 2071 ft 2 kts 259°
2026-05-08 10:10 24.55894 39.71360 2071 ft 0 kts 259°